Wind_Speed
44 45 44 44 43 43 41 40 39 39 39 39 39 38 38 38 37 37 38 39 40 41 42 42 42 43 45 46 47 48 49 50 51 52 54 56 57 59 60 62 63 65 67 68 70 71 72 72 71 70 69 69 70 70 70 69 67 64 60 55 52 49 47 46 45 44 44 43 42 42 43 44 44 45 44 44 47 48 48 49 49 50 52 53 54 55 55 56
43 45 44 43 42 40 40 38 38 38 38 38 37 37 37 37 36 37 38 40 42 43 43 44 45 46 47 47 48 49 50 52 53 54 56 57 59 60 62 64 66 68 69 71 72 72 71 70 69 69 69 70 69 68 65 62 57 53 50 47 46 45 44 43 44 44 44 44 44 44 45 46 47 48 48 48 50 51 51 52 53 54 55 55 57 58 59 60
43 44 44 42 40 39 39 37 37 37 37 37 37 36 36 36 37 39 40 42 43 45 46 47 47 47 48 49 50 51 52 54 55 56 58 59 61 63 64 67 69 70 71 72 71 70 69 68 68 69 68 67 64 61 56 53 49 47 45 44 44 43 43 44 45 46 46 47 47 48 49 50 51 53 53 53 54 56 55 57 57 58 59 60 60 61 62 63
43 43 43 42 41 40 38 37 37 37 38 38 37 37 37 38 40 41 43 44 45 46 47 48 48 48 49 50 51 52 54 55 57 58 60 61 63 65 67 69 71 71 71 69 68 67 68 68 67 66 63 59 55 52 49 47 46 45 44 44 44 45 45 46 47 49 49 50 51 51 52 54 56 57 57 57 59 60 61 61 63 63 64 65 66 66 67 68
42 41 41 41 41 40 38 37 37 37 37 37 37 38 39 41 42 43 44 45 45 46 47 47 48 48 50 51 53 54 55 57 59 60 62 64 66 68 69 70 70 69 68 67 67 67 67 65 62 58 54 51 49 47 46 45 45 45 45 46 46 47 48 50 51 52 53 54 54 55 56 57 59 61 62 63 64 65 66 66 67 68 69 70 71 72 72 73
42 41 40 40 40 39 38 37 37 37 36 36 37 38 40 41 42 43 43 44 45 45 46 47 48 49 51 52 54 55 57 59 61 62 64 66 68 69 69 68 67 66 66 66 66 64 61 58 54 50 48 46 45 45 45 45 46 47 48 48 49 50 51 53 54 56 57 57 58 59 60 61 63 65 66 68 69 69 70 71 72 73 74 75 76 76 77 78
42 41 40 39 38 37 37 37 36 35 35 35 37 39 40 41 41 42 42 43 44 45 46 47 49 50 52 53 55 57 59 61 63 64 66 68 68 67 66 65 65 65 65 63 60 57 53 50 47 46 45 45 45 46 46 47 48 49 51 52 53 54 55 56 58 59 61 62 63 63 64 66 67 68 70 72 74 74 75 76 77 79 79 80 81 82 83 83
42 41 40 39 37 36 35 34 33 33 34 36 38 39 39 40 40 41 42 43 44 45 46 48 49 51 53 55 57 59 61 63 64 66 67 66 65 64 64 64 64 62 60 56 52 49 46 45 45 45 45 46 46 48 49 50 51 53 54 55 57 58 59 60 61 63 65 66 67 68 69 71 72 72 74 76 78 79 80 81 82 83 84 85 86 87 88 89
42 41 40 40 38 36 34 33 34 35 37 38 38 38 39 39 40 41 42 43 44 46 47 49 51 53 55 57 59 61 63 64 65 65 64 63 63 63 63 61 59 55 51 48 45 44 43 44 44 45 46 47 49 50 52 53 55 57 58 59 60 62 63 65 66 68 69 71 71 72 74 76 77 77 78 80 82 83 84 86 87 88 89 89 90 91 92 93
42 41 41 39 37 35 35 36 37 38 38 38 38 38 39 39 40 41 43 44 46 47 49 51 53 55 56 58 61 62 63 63 63 62 61 61 61 60 58 54 50 47 44 43 42 43 43 44 46 47 49 50 52 54 56 57 59 60 62 63 64 66 68 69 71 72 74 75 76 76 77 80 82 81 82 84 85 86 88 89 90 91 92 92 93 94 95 96
40 40 39 37 36 37 38 39 39 39 39 38 38 39 39 40 41 42 44 46 47 49 51 53 54 56 58 60 61 62 61 60 60 60 60 59 57 53 49 46 43 42 41 42 43 44 46 47 49 51 52 54 56 58 60 61 63 64 66 67 69 70 72 73 75 76 78 79 80 80 80 83 85 85 85 86 87 89 90 91 92 92 93 94 94 96 97 98
38 38 38 38 38 39 39 39 39 39 38 38 39 39 40 41 42 44 46 47 49 51 53 54 56 58 59 59 59 59 58 58 58 58 56 52 48 45 42 41 41 41 42 43 45 47 49 51 52 54 56 58 60 62 64 65 67 68 70 71 73 74 75 76 77 79 81 82 83 83 82 83 87 88 88 88 89 90 91 92 93 93 94 94 95 96 97 98
37 38 38 38 39 39 38 38 38 38 38 38 39 40 41 43 44 46 47 49 50 52 54 56 57 57 56 56 56 56 57 56 54 51 47 43 41 40 40 41 42 43 45 46 48 50 52 54 56 58 60 62 64 65 67 69 71 72 73 75 75 76 77 79 79 80 81 83 84 85 84 84 86 88 89 89 90 90 91 92 92 93 94 94 95 95 96 97
36 37 37 37 37 37 37 37 37 37 38 39 40 41 42 44 45 47 48 50 51 53 54 54 54 54 54 54 54 54 53 50 46 42 40 38 38 40 41 43 45 47 48 50 52 54 56 58 60 62 64 65 67 68 70 72 73 74 76 77 78 78 78 80 81 82 82 83 84 85 85 84 85 87 88 88 89 89 89 90 91 92 93 93 94 94 95 96
35 35 35 35 35 35 35 36 36 37 38 39 40 42 43 44 46 47 49 50 51 51 51 51 51 52 52 52 50 47 44 41 38 37 37 38 40 42 44 46 48 50 52 54 56 58 60 62 63 65 67 68 69 70 72 73 75 76 77 78 79 80 80 80 81 82 82 83 83 84 83 83 84 85 86 87 88 88 89 89 91 92 93 94 94 95 95 96
33 33 33 33 33 34 34 35 36 37 38 39 41 42 43 44 46 47 48 48 48 48 48 49 49 49 48 45 42 39 37 36 37 38 40 42 44 46 48 50 52 54 56 58 60 61 63 64 66 67 69 70 71 72 73 74 76 77 77 78 78 79 79 79 80 80 80 81 82 83 84 84 85 86 87 88 89 90 91 92 93 95 96 97 98 99 99 99
31 31 31 31 32 33 33 34 35 36 38 39 40 41 42 43 44 45 45 45 45 46 47 46 45 42 39 36 35 34 35 37 39 41 43 45 47 49 51 53 55 57 59 61 62 64 65 66 67 69 70 71 72 73 73 74 75 75 76 76 77 77 77 77 78 79 80 80 81 83 86 88 89 89 90 92 93 94 95 96 97 98 99 100 101 101 101 101
28 28 29 29 30 31 32 33 34 35 37 38 39 40 40 41 41 41 42 43 44 44 42 39 36 33 32 33 34 35 37 40 42 44 46 48 50 52 54 56 58 59 61 62 64 65 66 67 68 69 70 71 71 71 71 71 72 72 73 74 75 76 77 77 78 79 80 82 83 85 87 89 92 93 94 96 96 97 97 98 98 99 100 100 101 101 102 101
26 26 27 28 29 30 30 31 32 33 34 35 36 36 37 38 39 40 41 40 38 36 33 31 30 31 32 34 36 39 41 43 45 47 49 51 53 55 57 58 60 61 62 63 65 66 66 67 67 67 67 67 68 68 69 69 70 70 71 72 74 75 78 80 81 82 82 84 86 87 88 89 91 92 93 95 96 96 96 97 97 98 99 99 100 100 100 100
24 24 25 25 26 27 28 29 30 30 31 32 33 34 36 37 37 36 34 32 29 28 28 29 30 32 34 37 39 41 43 45 47 49 51 53 55 56 58 59 61 62 62 63 63 63 63 63 63 63 63 64 65 66 67 68 69 70 72 73 75 76 78 81 82 83 84 84 85 86 87 88 89 90 91 92 93 94 95 95 96 97 97 98 98 99 99 100
20 21 21 22 23 24 25 26 26 28 29 31 32 33 33 32 30 27 26 25 25 27 29 31 33 35 37 40 42 44 45 48 49 51 53 54 56 57 58 59 60 60 60 60 60 60 60 60 61 61 62 63 64 65 66 68 70 71 73 74 76 77 78 80 82 82 83 83 83 83 83 84 86 87 89 90 91 92 93 94 94 95 96 96 97 98 99 100
17 18 18 19 20 21 22 24 25 27 28 29 28 26 25 23 22 22 23 25 27 29 31 33 36 38 40 42 44 46 47 49 51 52 54 55 56 56 57 57 56 56 56 56 57 57 58 59 60 60 61 62 64 65 66 68 69 71 72 73 75 76 75 76 78 79 80 79 79 80 81 82 83 85 87 89 90 91 93 94 94 95 96 97 98 99 100 100
14 15 16 18 19 21 22 23 24 24 23 21 19 18 18 19 20 22 24 27 29 31 33 36 38 40 42 44 45 47 48 50 51 53 53 54 54 53 53 53 53 54 54 54 55 56 56 57 58 59 61 62 63 64 65 66 67 68 69 70 71 73 73 72 73 76 78 79 78 79 80 81 83 85 86 88 89 91 93 94 95 96 98 99 101 102 103 102
14 15 16 18 19 19 19 18 17 15 14 14 15 16 18 20 22 24 27 29 31 34 36 38 40 41 43 44 46 47 49 50 51 50 50 50 50 50 50 51 51 52 53 53 54 55 56 57 57 58 59 60 61 62 63 64 65 65 67 67 68 70 71 72 72 73 75 77 78 79 79 80 83 85 85 87 90 91 93 95 95 96 98 99 101 102 103 103
13 14 14 14 13 12 11 10 10 11 12 13 15 17 19 22 24 26 29 31 34 36 38 39 41 42 44 45 46 47 48 47 47 46 46 46 47 48 48 49 50 51 51 52 53 54 55 56 56 57 58 58 59 60 61 62 63 63 64 65 66 67 69 71 72 73 74 76 77 78 79 79 81 84 85 86 88 90 91 93 93 94 95 96 98 100 102 103
10 10 9 9 8 8 7 7 9 10 12 15 17 19 21 24 26 28 31 33 35 37 39 40 41 42 43 44 44 44 43 43 43 44 45 45 46 47 48 49 49 49 50 50 51 52 53 54 54 55 56 56 57 57 58 59 60 61 62 64 65 67 68 69 70 71 71 73 75 76 77 76 76 81 84 82 84 85 86 88 88 89 91 93 94 96 99 100
9 9 8 7 6 5 6 8 10 12 15 17 19 21 23 26 28 30 32 34 36 38 39 40 41 41 41 41 40 40 40 41 43 44 44 45 45 45 46 46 47 47 48 48 49 50 51 51 51 52 52 53 54 55 56 57 58 60 61 62 62 63 64 64 64 66 67 69 72 73 75 74 72 78 82 80 81 82 82 84 85 87 89 90 91 92 94 96
9 7 5 3 3 5 8 10 12 14 17 19 21 23 25 27 29 31 33 35 36 37 39 39 38 38 37 37 38 39 40 41 41 41 41 41 41 42 43 44 45 46 47 47 47 48 48 49 50 51 52 53 54 55 56 56 57 57 57 57 58 58 59 60 61 63 65 67 70 72 75 75 73 77 81 81 82 83 82 84 86 87 88 88 89 90 92 93
4 2 1 3 6 8 10 12 14 16 18 20 23 25 26 28 30 32 33 34 35 36 36 35 34 34 36 37 38 38 38 38 37 38 39 40 41 42 43 44 45 46 46 47 47 49 50 51 52 52 53 54 54 54 54 54 54 55 55 56 58 59 60 61 63 64 65 67 70 73 76 78 77 76 79 83 85 85 86 87 89 89 89 89 89 91 92 93
2 2 4 6 8 10 12 14 16 18 20 22 23 25 27 29 31 32 32 32 32 31 30 31 32 34 35 35 34 33 34 35 37 38 40 41 42 42 43 45 46 47 48 49 51 52 52 52 52 53 53 54 54 54 55 55 56 57 57 57 58 60 61 63 64 65 66 67 68 71 74 78 80 79 78 81 84 85 86 88 89 89 89 90 90 91 91 91
4 5 6 8 9 11 13 15 17 19 21 22 24 26 28 29 29 29 28 27 27 28 29 31 32 31 30 30 31 33 35 36 37 38 39 41 42 43 45 46 47 49 50 50 51 52 52 52 53 55 56 57 58 59 60 60 61 61 61 61 60 60 61 63 64 65 66 66 68 71 73 76 80 79 77 78 79 81 83 85 86 86 87 88 88 87 86 85
5 6 7 9 10 12 14 16 18 20 22 24 25 26 26 25 24 24 24 25 26 28 29 28 28 28 29 31 34 35 37 38 39 41 42 44 45 46 48 49 50 51 52 52 52 53 55 56 57 59 60 61 62 62 63 64 65 65 66 66 65 63 63 63 64 64 64 66 69 72 74 75 78 78 76 77 78 79 81 83 84 84 84 84 84 84 83 83
6 7 8 10 12 13 15 17 19 21 23 24 23 22 21 20 21 22 24 25 26 26 25 26 27 30 32 34 35 37 39 41 42 44 45 47 48 49 51 52 53 54 55 57 58 58 59 60 61 62 63 64 65 65 66 67 68 69 69 70 70 70 69 69 69 68 66 66 69 74 77 79 81 79 78 79 80 81 82 82 83 83 83 83 82 83 83 83
7 8 9 11 13 15 17 19 21 21 21 20 18 17 18 20 22 23 24 24 24 24 26 28 31 32 33 35 37 39 41 42 44 45 47 49 51 52 54 55 56 58 59 60 61 62 63 64 64 65 65 66 67 68 69 71 71 72 73 74 75 76 76 75 76 76 74 71 71 75 79 84 87 85 83 83 82 82 83 82 82 83 84 84 82 81 80 81
7 9 11 13 16 18 19 20 19 17 16 15 15 17 19 21 22 22 22 23 25 27 29 31 33 34 36 37 39 41 43 45 46 48 50 51 53 55 56 58 59 60 61 62 63 65 66 67 67 67 68 68 69 70 71 73 74 74 76 77 77 78 79 79 79 80 80 78 77 79 81 86 91 89 87 87 85 84 84 84 84 83 83 83 82 80 79 78
9 12 14 16 18 18 18 16 14 14 14 15 17 19 20 20 20 21 23 25 27 29 31 33 35 37 38 40 42 44 45 47 49 51 52 54 55 56 58 59 60 62 63 64 65 65 66 68 69 69 70 70 70 71 72 74 75 75 77 78 79 80 81 82 81 81 82 80 80 82 84 87 91 90 87 89 88 87 85 84 83 82 81 81 80 79 78 76
13 15 16 17 16 15 13 12 13 14 15 17 19 19 19 19 21 23 25 27 29 31 33 35 37 39 41 43 45 46 48 50 51 53 54 56 57 58 59 60 61 62 64 65 66 66 67 69 71 71 71 71 72 73 74 75 75 76 79 81 82 82 82 85 85 84 83 82 81 83 86 91 96 94 91 91 91 89 86 83 82 80 79 78 77 76 76 75
15 16 15 14 12 12 11 12 14 16 17 17 18 18 20 22 23 25 27 29 31 33 36 38 40 42 44 45 47 49 50 52 53 54 55 56 57 58 60 61 62 63 65 66 68 68 69 69 72 73 74 74 74 75 76 77 77 78 81 83 84 84 83 85 88 89 89 88 85 83 86 93 99 98 96 95 94 92 88 84 82 80 78 76 74 74 72 72
15 14 12 11 11 11 13 15 16 16 16 17 18 20 22 23 25 27 29 31 34 36 39 42 43 45 46 47 49 50 51 52 54 55 56 57 58 59 61 62 63 65 66 68 69 70 71 71 73 75 77 78 78 78 79 81 81 81 83 84 86 87 87 87 89 92 93 93 91 87 86 94 100 99 97 97 95 94 92 87 83 81 80 78 76 75 72 71
13 12 11 11 12 13 15 16 16 15 16 19 21 22 23 25 27 29 31 34 37 40 42 44 45 46 47 49 50 51 52 53 54 55 57 58 59 61 62 63 65 66 68 69 71 72 74 74 75 76 78 80 81 81 82 84 85 85 85 87 88 89 89 90 91 93 94 95 97 93 89 94 101 100 97 96 95 96 94 89 84 82 81 80 78 77 75 73
12 11 13 14 14 15 15 15 15 17 20 21 22 23 25 27 29 32 35 38 41 42 44 45 46 47 48 49 50 51 53 54 55 57 58 60 61 62 64 65 66 68 69 71 72 73 75 77 77 78 79 81 82 84 84 86 87 87 87 89 91 91 92 92 93 94 95 96 98 98 93 94 100 103 101 100 98 97 96 92 87 82 80 79 77 77 76 74
12 13 15 14 14 15 15 16 19 21 21 21 23 25 27 29 32 35 38 41 42 44 45 46 47 48 49 50 51 52 54 55 57 58 60 61 63 64 65 67 68 69 71 72 74 75 76 78 79 80 82 83 84 85 87 88 89 89 89 91 93 94 95 97 98 97 96 97 99 99 95 94 99 102 103 102 99 97 96 94 90 85 82 80 78 76 74 71
14 15 15 14 14 15 16 19 22 22 21 22 25 27 29 32 35 38 41 42 43 44 46 47 48 49 50 51 52 53 55 57 59 60 61 63 64 65 66 68 69 70 72 74 75 77 78 80 81 82 83 84 86 87 88 90 91 92 92 93 96 98 98 99 101 100 98 99 101 99 94 94 98 101 102 102 100 97 96 93 91 87 82 80 78 76 73 70
15 15 15 15 15 17 20 22 22 21 22 24 27 29 32 35 38 40 42 43 44 45 46 48 49 50 51 52 54 55 56 58 59 61 62 63 64 66 67 68 70 72 73 75 77 78 80 82 84 84 84 85 86 88 89 92 94 96 97 97 99 101 101 101 103 103 100 99 103 104 98 95 97 99 99 100 99 97 95 92 90 88 84 80 77 75 72 70
16 16 16 16 17 21 23 22 21 22 24 26 29 32 34 37 39 40 41 43 44 45 47 48 49 50 52 53 55 56 57 58 59 61 62 63 65 66 67 69 71 73 74 76 78 79 81 83 86 88 89 90 91 92 94 96 98 100 101 101 101 102 103 103 105 105 103 100 102 106 104 98 96 95 95 95 96 95 92 89 87 86 84 81 78 75 72 69
16 17 17 18 21 23 23 22 22 24 26 28 31 34 36 37 38 40 41 42 44 45 46 48 49 50 52 53 54 55 57 58 59 61 62 64 65 67 68 70 72 73 75 77 79 80 82 84 86 89 91 93 94 95 97 99 100 101 102 102 102 103 104 105 106 107 105 102 101 105 107 103 98 96 95 94 93 92 91 88 85 83 81 79 79 77 73 70
17 18 19 21 23 23 22 22 23 25 27 30 33 34 36 37 38 39 40 42 43 44 46 48 49 51 51 52 53 55 56 58 60 61 63 65 66 68 70 71 72 74 76 78 80 81 83 85 86 89 91 93 95 96 97 100 101 102 102 103 103 103 104 105 107 108 107 106 103 102 104 104 100 98 96 94 93 92 90 87 83 81 80 79 79 78 75 72
18 19 21 22 23 22 22 23 24 26 29 32 33 34 35 35 37 38 39 40 42 44 46 48 50 51 51 51 52 54 56 58 60 62 64 66 67 69 71 72 73 75 77 79 80 82 84 85 87 89 92 93 95 97 98 99 101 101 102 104 105 105 105 105 108 109 108 107 106 103 103 103 102 100 97 95 94 93 90 87 84 82 80 80 81 79 76 73
19 21 22 23 22 22 23 24 26 28 30 32 32 33 34 35 36 37 38 40 41 43 46 49 51 52 52 52 52 54 55 58 60 63 65 67 69 70 71 72 74 76 78 79 81 83 85 87 88 90 92 94 95 97 98 99 101 103 104 105 106 106 107 107 109 110 109 108 108 107 105 104 104 103 101 98 96 93 90 86 85 83 81 80 79 77 74 70
20 21 22 22 22 22 23 25 27 29 30 31 31 32 33 34 35 37 39 40 41 44 47 50 52 53 53 53 53 54 56 59 61 64 67 68 70 71 72 73 75 77 79 80 82 84 86 88 89 91 93 95 97 98 100 101 103 105 105 106 106 107 108 110 111 112 110 107 108 108 107 105 104 103 102 100 97 94 90 85 82 82 81 78 76 73 71 68
21 21 22 22 21 22 24 26 27 29 29 30 31 31 33 34 35 37 39 40 42 45 48 51 53 55 55 55 55 56 58 60 63 66 68 70 71 72 74 75 77 78 80 82 84 86 88 89 91 92 94 97 99 100 102 103 103 104 105 106 108 109 109 110 112 114 113 111 109 108 108 106 104 103 101 99 96 93 90 85 80 78 78 78 77 74 70 68
21 21 21 22 21 22 24 26 27 28 29 29 31 32 33 34 35 37 39 41 43 45 48 51 54 56 56 55 56 57 59 62 65 67 69 71 73 74 76 77 79 81 82 84 86 88 90 92 93 95 97 99 101 103 104 105 105 106 107 109 110 111 110 111 113 114 114 114 113 111 109 108 106 103 99 96 94 91 89 86 83 80 79 79 79 76 72 68
Wind_Direction
220 222 221 222 225 226 228 230 233 234 236 238 240 243 245 248 251 255 258 261 264 267 269 270 273 275 276 277 278 279 281 282 284 285 287 287 288 289 289 289 289 290 290 291 292 293 293 294 294 294 294 293 293 293 293 293 292 291 290 290 289 289 288 287 286 285 285 285 284 283 284 284 283 282 281 281 280 280 280 280 280 280 280 280 280 280 279 279
217 220 220 221 224 227 229 232 235 236 238 240 242 244 247 250 254 257 261 263 266 268 270 272 274 276 277 278 280 282 283 285 286 287 288 289 289 289 290 290 291 292 292 293 293 294 294 294 294 294 294 294 293 293 292 291 290 289 288 288 287 287 286 286 286 285 285 286 286 286 285 285 285 284 283 283 282 282 281 281 281 280 279 279 279 278 278 278
213 217 219 221 223 227 229 233 236 239 241 243 245 248 251 254 257 260 262 264 266 269 270 272 274 276 278 281 283 284 285 287 288 288 289 289 290 290 291 292 293 293 294 294 294 294 294 294 294 294 294 293 293 292 290 289 288 287 287 287 286 286 286 286 286 287 287 288 288 289 289 289 288 287 286 285 284 284 283 282 281 280 279 278 277 277 276 276
213 216 218 221 223 226 228 231 235 239 242 245 247 250 253 256 259 261 263 264 267 269 271 273 275 278 280 282 284 286 287 288 289 289 289 290 291 292 292 293 294 294 294 294 294 294 294 294 294 294 293 292 291 290 289 288 288 287 287 287 287 287 287 287 288 289 290 290 291 291 291 290 289 288 287 286 285 285 284 283 283 282 281 280 279 278 277 277
215 216 218 220 223 226 229 232 236 239 242 245 248 251 254 257 259 261 263 265 267 270 272 275 277 280 282 284 286 287 288 289 289 290 291 292 292 293 293 294 294 294 294 294 294 294 294 294 293 293 291 290 289 289 288 288 288 288 288 289 289 290 290 291 291 292 292 292 292 291 290 289 288 288 287 287 286 285 285 284 284 283 282 281 281 280 279 279
217 218 219 221 224 226 229 233 236 240 243 246 249 252 255 257 260 262 265 267 270 272 275 278 280 282 284 285 287 288 289 290 290 291 292 292 293 293 294 294 294 294 294 294 294 294 293 293 292 291 290 289 289 289 289 289 290 290 291 291 292 293 293 293 293 293 292 291 291 290 289 288 287 287 287 287 286 285 284 284 283 282 282 281 280 280 279 279
219 220 222 224 226 227 230 233 237 241 245 248 251 254 257 260 262 265 267 270 273 275 278 280 282 284 285 287 288 289 290 291 291 292 292 293 293 294 294 294 293 294 294 294 293 293 292 292 291 290 290 290 290 291 291 292 292 293 293 294 294 294 294 293 292 291 291 290 289 289 288 287 287 286 286 285 285 284 283 283 282 281 281 280 280 279 279 278
221 223 226 228 230 231 232 236 239 244 248 251 254 256 259 262 265 268 271 273 276 278 280 282 284 285 286 288 289 290 291 291 291 292 292 293 293 293 293 293 293 293 293 293 292 292 292 292 292 292 292 293 293 293 294 294 294 294 294 294 294 293 292 292 291 290 289 289 289 288 288 287 286 285 284 284 284 283 282 282 281 281 280 280 279 279 278 278
222 225 228 230 232 234 237 241 245 248 251 253 256 259 262 265 268 271 274 276 278 280 282 283 285 286 287 288 289 290 290 290 291 292 292 292 292 292 292 293 293 292 292 292 292 292 293 293 293 294 294 295 295 295 295 295 294 294 294 293 293 292 292 291 290 290 289 289 288 288 287 286 285 285 283 282 282 282 281 281 280 280 280 279 279 279 278 277
222 225 228 230 233 236 241 244 247 250 252 255 258 262 265 268 271 274 276 278 279 281 282 284 286 287 288 288 289 289 290 291 291 292 292 292 292 292 292 292 291 291 292 292 293 293 294 294 295 295 295 295 295 295 295 294 294 293 293 293 292 292 291 291 290 290 289 288 288 287 286 285 284 284 282 282 281 281 280 280 279 279 279 279 279 278 278 277
221 224 227 230 234 238 241 244 247 250 254 257 261 264 267 270 273 274 276 278 280 281 283 285 286 287 287 288 289 289 290 291 291 291 291 292 292 291 291 291 292 292 293 293 294 294 295 295 296 296 296 295 295 294 294 294 293 293 293 292 292 291 291 290 290 289 288 288 287 287 286 285 284 284 283 282 282 281 281 281 281 280 280 280 279 279 278 277
220 224 227 230 233 237 240 244 247 251 255 259 262 265 268 270 272 274 276 278 280 282 283 284 285 286 287 288 289 289 290 290 290 291 291 291 291 291 292 292 292 293 294 294 295 295 296 296 296 295 295 295 294 294 294 293 293 293 292 292 291 291 291 290 289 289 289 288 288 288 287 286 286 286 285 284 284 284 283 283 283 282 281 281 280 279 279 278
219 223 226 229 233 236 240 244 248 252 256 259 262 265 268 270 272 274 276 278 280 282 283 283 285 286 287 288 288 289 289 290 290 290 290 291 291 292 292 293 293 294 294 295 295 296 296 296 295 295 295 294 294 294 293 293 293 293 293 292 292 292 291 291 291 290 290 290 290 290 289 288 287 287 287 286 285 285 284 284 283 282 281 281 280 279 279 278
217 221 225 229 232 236 240 245 249 253 256 259 262 265 268 270 272 275 277 278 280 281 283 284 286 287 287 288 288 289 289 289 289 289 290 291 291 292 293 293 294 294 295 295 296 296 296 296 295 295 295 295 295 295 294 294 294 294 294 294 294 294 293 293 293 293 292 292 291 291 290 289 288 287 287 286 286 285 284 284 283 283 282 281 280 280 279 279
216 221 225 229 233 237 242 246 250 253 257 260 263 266 268 271 274 275 277 279 281 282 284 285 286 287 287 288 288 288 288 288 288 289 290 291 292 293 294 294 295 296 297 297 297 297 296 296 296 296 296 296 296 296 296 296 296 296 297 297 297 297 297 296 295 295 294 293 292 292 291 290 289 289 288 288 287 287 287 286 286 285 285 285 284 283 282 282
216 220 225 229 234 238 243 247 250 254 258 261 264 267 270 272 274 277 279 280 282 284 285 285 286 287 287 287 287 287 287 288 289 291 292 293 294 295 296 296 297 297 298 298 298 298 298 298 298 298 298 298 299 299 299 299 299 299 299 299 298 298 298 297 296 296 295 295 295 295 294 294 293 292 292 291 291 291 291 290 290 290 289 289 288 287 286 286
215 220 225 230 235 239 244 248 252 255 259 263 266 269 271 274 276 278 280 282 283 284 285 285 285 285 284 284 285 287 289 290 291 293 294 295 296 297 298 298 298 299 299 299 299 299 300 300 300 301 301 301 302 302 302 302 301 301 300 300 299 298 298 297 297 297 296 296 296 297 297 297 296 296 295 295 295 294 294 293 293 292 291 290 290 289 288 288
216 221 226 231 236 241 245 249 253 257 261 264 268 270 273 276 278 279 281 282 283 283 283 283 282 282 283 284 286 288 290 292 293 295 297 298 299 299 299 300 300 301 301 301 302 302 303 303 303 304 304 304 304 303 303 302 301 301 300 300 299 299 299 298 298 298 298 298 297 297 297 297 297 297 297 296 295 295 295 294 293 293 292 291 291 290 290 289
215 221 227 232 237 242 247 251 255 259 263 266 270 272 275 277 279 280 281 282 281 281 280 280 282 284 286 288 290 292 294 295 297 298 299 300 301 301 302 303 303 304 304 304 305 305 306 306 306 306 305 305 304 303 302 302 301 300 299 299 299 300 300 299 299 299 299 299 298 298 298 298 297 297 296 295 295 295 295 295 294 294 293 293 292 292 292 291
216 222 228 234 239 244 249 254 258 262 266 269 271 274 276 278 279 279 279 279 279 280 281 283 286 288 290 292 294 296 297 298 299 300 301 303 304 304 305 306 306 306 307 307 307 307 308 307 306 305 304 303 302 302 301 300 300 300 301 301 301 301 301 300 300 300 300 300 299 299 299 299 298 297 297 296 296 296 296 296 295 295 295 294 294 293 293 292
218 225 231 237 243 248 253 257 261 265 268 271 273 275 276 276 276 276 276 277 280 283 286 289 291 293 295 296 297 299 300 301 303 305 306 307 308 308 308 308 308 308 308 309 308 308 307 306 305 304 303 303 302 302 302 303 303 303 304 303 303 302 302 301 301 300 300 300 300 299 299 299 299 298 298 298 298 298 297 297 297 296 296 296 295 295 294 294
223 230 237 242 248 253 258 262 265 268 270 272 273 273 272 272 272 274 277 281 285 288 291 293 295 296 298 299 301 303 304 306 308 309 310 310 309 309 309 309 310 310 309 309 308 307 306 306 306 306 305 306 306 306 306 306 306 305 305 304 303 303 302 301 301 301 301 301 301 301 301 301 300 300 300 300 300 300 299 299 299 299 299 299 298 297 297 296
230 237 243 249 254 258 261 263 265 267 267 267 267 267 268 271 276 281 285 290 292 293 295 296 298 299 301 303 305 308 309 310 311 311 311 311 311 311 311 311 311 311 310 310 309 309 309 309 309 309 309 309 309 309 308 307 306 306 305 305 304 304 304 303 303 304 304 304 304 304 304 304 303 303 303 303 302 301 301 301 301 301 301 300 299 298 297 297
239 245 250 253 256 257 258 259 258 257 257 259 263 269 276 282 287 291 293 295 296 297 298 299 301 304 306 309 311 312 312 312 312 312 313 313 313 313 313 313 313 313 313 313 313 313 312 312 312 312 312 312 311 310 309 309 309 308 308 307 307 307 307 307 307 307 307 307 307 307 306 306 305 304 304 304 303 302 301 301 301 300 299 298 297 297 297 297
243 245 245 245 244 242 240 240 244 250 259 270 279 286 291 294 296 296 297 298 299 300 302 305 308 310 311 313 313 314 314 314 315 316 316 316 316 316 316 316 317 317 316 316 316 316 315 315 316 315 315 314 313 313 312 312 312 312 312 312 312 312 312 311 311 310 310 309 309 308 307 307 306 304 303 303 301 299 299 299 298 298 297 296 296 296 296 296
220 217 214 210 209 213 223 240 258 272 282 290 294 297 298 298 298 299 299 301 303 306 309 312 313 314 314 315 316 317 318 319 320 320 320 321 321 321 321 321 321 320 320 320 320 320 320 320 320 320 319 319 318 318 317 317 318 318 318 318 317 316 315 314 313 312 311 309 309 309 306 306 305 302 301 301 299 298 298 298 298 297 296 296 296 296 295 295
175 176 179 186 203 229 259 277 288 294 299 300 299 300 300 300 302 303 305 307 310 312 314 315 316 317 317 319 320 322 324 326 326 326 325 325 325 325 325 326 326 327 327 327 328 327 327 327 327 326 326 326 325 325 325 325 325 324 323 321 319 317 316 315 314 313 313 312 311 310 307 307 306 303 302 303 303 302 302 302 301 299 298 298 297 297 296 295
158 165 179 211 264 291 298 300 302 303 302 301 301 302 303 305 307 309 312 314 315 316 318 319 320 321 323 326 329 331 331 331 330 329 329 330 332 333 334 335 336 336 336 336 335 335 335 335 335 335 335 334 333 332 332 331 329 326 324 323 321 320 319 319 319 318 318 317 315 313 312 311 310 308 308 309 308 308 308 306 304 302 302 302 301 301 300 300
148 158 298 315 315 313 310 308 305 303 303 303 304 306 309 311 313 315 317 319 320 321 322 324 327 330 333 334 335 335 334 335 336 337 340 342 343 344 344 344 344 344 344 344 344 344 345 345 343 342 341 339 338 336 335 334 332 331 331 330 328 327 325 324 323 322 321 320 318 317 315 314 313 313 314 314 313 313 312 310 308 307 307 307 306 305 304 304
55 357 337 327 320 315 310 307 305 306 307 308 310 313 315 317 318 321 323 324 325 327 329 333 337 339 339 338 338 340 343 346 349 350 351 351 351 351 351 352 352 352 352 352 352 351 351 349 347 346 345 344 343 341 340 340 339 337 336 335 333 331 329 327 325 325 324 322 321 320 318 318 317 318 319 316 315 314 313 311 310 310 310 309 308 306 305 304
6 346 334 323 316 311 309 309 310 311 312 315 317 318 320 323 325 328 329 331 333 337 341 342 343 342 343 346 349 353 356 357 357 357 356 356 357 357 358 358 358 358 357 357 356 354 354 353 351 350 349 348 347 345 344 344 342 340 339 337 336 333 331 328 327 327 326 325 324 322 321 321 320 319 319 317 315 315 314 313 312 312 311 309 307 306 304 304
350 337 326 318 314 313 314 314 315 317 320 322 323 324 328 331 334 337 339 342 345 347 347 346 349 352 357 0 1 2 2 2 2 1 1 1 2 2 2 2 2 1 0 360 359 358 357 357 355 353 352 350 349 347 346 345 344 342 340 338 337 335 333 330 329 329 329 329 329 327 325 324 321 320 320 320 319 318 317 316 315 313 312 310 309 309 309 308
340 330 323 320 319 319 320 321 323 326 327 327 329 333 337 341 346 349 350 352 352 353 354 358 3 6 7 8 7 7 7 6 6 6 6 6 5 5 5 4 4 3 2 2 1 1 359 359 357 355 353 351 350 348 346 346 345 342 341 339 338 337 335 334 332 333 334 333 333 331 328 326 324 323 325 324 323 322 320 319 318 316 315 315 315 315 314 312
334 328 326 326 327 328 330 330 330 331 331 336 341 345 349 355 358 358 358 360 1 4 8 12 13 13 12 12 11 11 10 9 9 9 8 8 7 7 6 5 5 4 4 3 2 1 360 359 358 356 355 352 350 349 347 347 346 343 342 342 341 338 337 337 337 337 337 337 335 332 331 330 328 327 329 328 326 325 323 322 321 321 320 319 318 317 315 313
335 337 338 338 337 337 335 333 334 339 345 352 355 358 3 6 5 5 8 11 13 16 17 18 18 16 15 15 14 14 13 12 11 10 10 9 8 7 6 6 5 4 4 3 3 1 359 358 358 357 356 354 352 350 348 347 346 345 344 343 342 339 338 339 339 339 338 338 338 335 335 334 329 329 331 329 328 327 327 327 325 324 323 321 321 319 317 314
350 351 348 344 341 338 338 341 350 359 3 5 6 10 13 13 14 18 20 21 21 22 22 21 20 18 18 17 16 15 14 13 12 11 10 9 9 8 7 6 6 5 4 4 4 3 0 359 358 358 357 355 353 352 350 349 348 346 344 343 343 342 340 340 340 340 339 339 340 339 339 336 330 330 333 331 330 330 329 329 327 325 324 323 322 320 318 316
359 353 348 344 342 344 352 4 12 14 14 15 16 19 21 22 26 28 26 25 26 25 24 23 22 20 19 18 16 15 14 13 13 11 10 9 9 8 7 7 6 5 5 4 4 4 2 0 359 358 358 356 355 354 352 351 349 347 345 344 345 344 342 340 340 341 341 341 342 341 342 338 332 332 335 333 331 331 330 330 328 327 326 325 323 321 320 319
356 350 348 349 356 7 18 23 24 22 20 22 26 28 31 32 32 31 29 28 28 26 26 24 23 21 20 18 17 15 14 13 12 11 10 9 9 9 8 8 7 6 5 5 4 4 4 2 360 359 359 358 357 355 353 352 351 350 348 346 345 345 344 342 341 342 342 342 342 343 345 340 334 334 336 334 333 331 331 332 331 329 328 327 325 323 322 321
354 353 359 9 22 30 31 31 31 28 28 32 36 37 36 35 34 33 31 30 29 28 26 25 23 21 20 18 17 15 14 13 12 11 10 10 10 9 8 8 8 7 6 5 5 4 4 3 2 0 360 359 358 356 355 354 353 352 350 348 346 346 345 344 343 344 343 343 342 344 347 342 335 336 336 334 333 333 332 333 333 332 331 330 328 326 325 325
360 8 23 33 37 37 37 37 37 37 39 42 42 40 37 36 36 34 33 31 31 29 27 25 23 21 19 17 16 15 14 13 12 11 10 10 10 9 8 8 7 7 6 5 5 4 3 3 4 3 1 0 359 358 356 355 355 354 351 349 348 347 346 345 345 345 345 344 342 344 348 344 336 336 337 335 335 335 333 334 334 334 333 332 331 329 328 328
17 31 42 43 42 42 42 44 46 47 47 45 43 41 39 37 36 35 34 33 31 29 27 25 23 21 20 18 16 15 14 13 12 11 10 10 10 9 8 7 7 7 6 5 5 5 4 3 4 4 3 2 0 359 358 356 356 355 353 351 349 348 347 346 346 347 347 345 343 343 347 344 338 337 338 337 337 336 334 334 335 336 335 334 333 331 330 329
38 46 49 47 46 49 50 51 52 51 48 45 43 41 40 39 38 36 35 34 32 29 27 25 23 22 20 18 17 15 14 13 12 11 10 9 9 8 8 8 7 7 6 6 5 4 4 3 3 3 3 2 1 360 359 357 356 356 354 352 350 349 349 348 347 349 349 346 343 343 345 345 340 339 339 338 337 336 335 335 335 336 336 335 334 332 330 329
52 53 52 50 51 54 56 55 54 51 48 45 43 42 41 40 39 38 36 34 32 29 28 26 23 22 20 18 17 15 14 12 12 11 10 9 9 8 8 7 7 6 6 6 5 4 4 3 2 3 3 2 1 0 359 357 356 356 356 354 352 351 351 349 347 349 350 347 343 342 345 346 343 341 340 337 337 337 336 336 336 336 336 336 334 333 331 331
58 56 54 53 54 56 57 56 54 50 46 44 44 43 42 41 40 38 36 34 32 30 28 26 23 21 19 17 16 15 14 12 11 10 10 9 8 8 7 7 6 6 5 6 5 4 4 3 1 1 2 2 1 0 359 358 357 356 357 356 355 353 351 349 348 349 351 349 344 342 345 347 345 342 340 338 338 338 337 337 337 337 336 335 334 334 333 333
60 58 57 55 57 58 57 55 52 49 47 45 45 44 43 42 40 38 36 34 32 30 28 25 23 21 19 17 15 14 13 12 11 10 9 9 8 7 7 6 6 6 5 5 5 5 4 3 1 0 1 1 1 1 360 359 358 357 357 357 356 353 352 350 348 349 350 349 346 343 344 346 345 343 341 339 338 338 337 337 338 337 336 335 334 335 335 334
62 61 59 57 58 58 57 54 51 49 48 47 47 45 43 42 40 38 36 34 32 30 27 25 22 20 18 16 15 14 13 12 11 10 9 9 8 7 6 5 5 5 5 5 5 5 4 4 3 1 1 1 1 1 0 359 358 358 357 357 356 354 353 351 348 349 350 349 348 345 343 345 345 344 343 341 340 339 338 339 340 337 336 335 335 335 336 335
64 62 59 58 58 58 57 54 52 50 49 49 47 45 44 42 39 36 34 33 31 28 26 23 20 18 16 15 14 13 12 11 11 10 9 8 7 6 5 5 4 5 5 4 5 4 4 4 4 2 1 1 1 1 1 360 359 358 357 356 356 355 354 351 348 349 350 349 348 346 344 344 345 345 345 343 342 341 340 340 340 338 337 337 336 336 337 337
66 64 61 59 58 58 57 55 53 51 50 49 47 45 43 40 37 34 32 30 28 26 24 21 18 16 14 14 13 12 11 11 10 9 8 8 7 6 5 5 4 4 5 4 4 4 4 4 4 3 1 1 1 1 1 0 358 358 357 356 356 355 354 351 349 350 351 349 347 347 346 346 346 346 346 345 343 342 340 340 341 340 340 339 337 337 337 337
66 64 62 59 59 58 56 54 53 52 50 49 47 44 41 38 34 32 30 28 26 24 22 19 17 15 14 13 12 12 11 11 10 9 8 7 7 6 6 5 5 4 5 4 4 4 4 4 4 4 2 2 2 1 1 0 358 358 357 356 356 355 354 352 350 350 351 350 348 347 347 348 347 347 347 346 344 343 341 342 343 342 341 340 338 337 337 336
65 64 63 63 61 58 56 54 53 52 50 48 46 42 39 36 33 31 29 27 25 23 20 18 17 16 14 13 12 12 11 11 10 9 8 8 7 7 6 6 5 5 5 4 4 3 4 3 4 4 3 2 2 2 1 0 359 358 357 356 356 355 355 353 350 350 351 351 349 348 348 348 348 347 348 347 345 343 342 343 344 342 341 340 337 336 336 336
66 64 65 66 62 58 57 56 54 52 49 46 43 40 37 35 32 30 29 27 25 22 20 18 17 17 16 14 13 12 11 11 11 10 9 9 8 8 7 6 6 6 5 5 4 4 4 4 4 4 4 3 3 2 2 1 360 359 357 356 356 356 356 354 351 350 351 351 351 350 349 349 349 348 348 347 346 344 342 342 343 343 342 340 338 338 339 338
68 66 66 66 62 59 59 57 54 51 47 44 41 37 35 33 31 29 28 27 25 22 20 19 18 17 17 15 14 13 12 11 12 11 11 10 10 9 8 7 7 7 6 6 5 5 5 4 4 5 5 4 3 3 2 1 0 359 358 357 356 356 356 355 352 351 352 352 351 350 349 350 349 348 348 347 347 345 343 342 344 344 344 343 341 340 339 339
Height
10707 10709 10713 10716 10718 10720 10722 10724 10725 10726 10727 10728 10729 10730 10731 10732 10732 10733 10733 10732 10732 10731 10731 10731 10731 10730 10728 10727 10726 10725 10723 10721 10719 10717 10714 10712 10709 10706 10703 10700 10697 10694 10691 10688 10685 10682 10678 10675 10671 10667 10664 10660 10657 10653 10650 10646 10643 10640 10637 10634 10632 10630 10628 10625 10622 10620 10618 10616 10615 10613 10610 10608 10606 10604 10603 10601 10596 10595 10594 10592 10591 10588 10585 10583 10581 10579 10577 10575
10705 10708 10711 10714 10716 10718 10720 10722 10723 10725 10725 10726 10727 10729 10730 10730 10730 10730 10730 10729 10729 10729 10729 10728 10728 10727 10725 10723 10722 10720 10718 10716 10714 10712 10709 10707 10703 10700 10697 10694 10691 10688 10685 10681 10678 10675 10672 10668 10664 10661 10657 10654 10650 10646 10643 10640 10637 10634 10632 10630 10628 10625 10623 10620 10617 10615 10613 10612 10610 10608 10606 10603 10600 10598 10597 10596 10591 10590 10589 10587 10585 10583 10580 10578 10575 10573 10570 10568
10704 10707 10710 10712 10715 10716 10718 10720 10721 10722 10723 10725 10726 10727 10728 10728 10728 10728 10727 10727 10726 10726 10726 10725 10724 10723 10721 10719 10717 10715 10714 10711 10709 10707 10704 10701 10698 10695 10691 10688 10685 10682 10679 10675 10672 10668 10665 10661 10658 10654 10651 10647 10643 10640 10637 10634 10632 10630 10628 10626 10624 10621 10619 10616 10613 10610 10608 10607 10605 10603 10601 10597 10594 10591 10590 10589 10585 10583 10582 10580 10578 10575 10573 10571 10569 10567 10564 10561
10703 10706 10708 10711 10713 10714 10716 10718 10719 10720 10722 10723 10725 10726 10726 10726 10725 10725 10725 10724 10724 10724 10723 10722 10720 10719 10718 10715 10713 10711 10709 10707 10704 10701 10699 10696 10692 10689 10686 10682 10679 10676 10672 10669 10666 10662 10659 10655 10651 10648 10644 10641 10637 10635 10632 10629 10627 10625 10623 10621 10619 10617 10614 10612 10608 10606 10604 10602 10600 10598 10595 10592 10587 10584 10582 10581 10578 10575 10574 10572 10569 10567 10565 10563 10561 10559 10557 10554
10702 10705 10707 10709 10711 10712 10715 10716 10717 10719 10721 10722 10723 10724 10723 10723 10722 10722 10722 10722 10721 10721 10719 10718 10717 10716 10714 10711 10709 10707 10705 10702 10699 10696 10693 10690 10687 10684 10680 10677 10673 10670 10666 10663 10660 10656 10653 10649 10646 10643 10639 10636 10633 10630 10628 10625 10623 10621 10619 10617 10614 10612 10610 10606 10603 10601 10598 10596 10594 10591 10589 10586 10581 10577 10574 10573 10571 10568 10566 10564 10561 10559 10556 10554 10552 10550 10548 10546
10700 10703 10705 10707 10709 10711 10713 10715 10716 10718 10720 10721 10721 10721 10720 10720 10719 10719 10719 10719 10718 10717 10716 10714 10713 10711 10709 10707 10705 10702 10700 10697 10694 10691 10688 10685 10682 10678 10675 10671 10668 10664 10661 10657 10654 10650 10647 10644 10641 10638 10635 10632 10629 10627 10624 10622 10619 10617 10614 10612 10610 10607 10605 10602 10598 10595 10592 10590 10588 10585 10583 10579 10576 10572 10568 10565 10563 10561 10558 10555 10553 10550 10547 10545 10543 10541 10538 10536
10699 10701 10703 10705 10707 10710 10711 10713 10715 10717 10718 10719 10718 10718 10717 10717 10717 10717 10717 10716 10715 10714 10713 10711 10709 10708 10705 10703 10700 10697 10695 10692 10689 10686 10683 10680 10676 10673 10670 10666 10663 10659 10655 10652 10648 10645 10642 10639 10636 10633 10631 10628 10625 10623 10620 10617 10615 10612 10610 10607 10605 10602 10600 10597 10593 10589 10586 10583 10581 10579 10576 10573 10570 10567 10563 10557 10554 10553 10550 10547 10544 10541 10538 10536 10533 10531 10528 10525
10697 10700 10702 10704 10706 10708 10710 10712 10714 10715 10716 10715 10715 10715 10714 10714 10715 10715 10714 10713 10712 10711 10709 10708 10706 10704 10701 10698 10696 10693 10690 10687 10684 10681 10678 10675 10671 10668 10664 10661 10657 10654 10650 10647 10644 10641 10638 10636 10633 10630 10627 10624 10621 10618 10616 10613 10610 10607 10605 10602 10599 10597 10594 10591 10588 10584 10580 10577 10575 10572 10569 10565 10563 10561 10557 10551 10547 10544 10541 10537 10534 10531 10528 10526 10523 10520 10517 10514
10696 10698 10700 10702 10704 10707 10709 10711 10712 10713 10713 10712 10712 10712 10712 10712 10712 10712 10711 10710 10709 10707 10706 10704 10702 10699 10697 10694 10691 10689 10685 10683 10680 10676 10673 10670 10666 10663 10659 10656 10652 10649 10646 10643 10641 10638 10635 10633 10630 10627 10623 10620 10617 10614 10611 10608 10605 10602 10599 10596 10594 10591 10588 10585 10581 10577 10573 10570 10568 10565 10562 10556 10553 10553 10549 10544 10539 10536 10532 10528 10524 10521 10518 10515 10512 10509 10505 10502
10694 10696 10698 10701 10704 10706 10708 10709 10709 10710 10710 10710 10710 10710 10710 10710 10710 10709 10708 10707 10705 10704 10702 10700 10697 10695 10693 10690 10687 10684 10681 10678 10675 10671 10668 10665 10661 10658 10654 10651 10648 10646 10643 10640 10638 10635 10632 10629 10626 10622 10619 10616 10612 10609 10606 10603 10599 10596 10593 10590 10588 10584 10581 10577 10574 10570 10566 10562 10559 10558 10555 10547 10543 10543 10540 10534 10531 10526 10523 10519 10515 10511 10508 10505 10502 10498 10494 10489
10693 10695 10698 10701 10703 10705 10706 10706 10707 10707 10708 10708 10709 10708 10708 10708 10707 10706 10705 10703 10702 10700 10698 10696 10693 10691 10688 10685 10682 10679 10676 10673 10670 10667 10663 10660 10656 10653 10650 10648 10645 10643 10640 10637 10634 10631 10628 10625 10621 10618 10614 10611 10607 10604 10600 10597 10594 10590 10587 10584 10581 10578 10574 10571 10567 10562 10557 10554 10550 10549 10548 10539 10531 10532 10530 10524 10521 10517 10513 10509 10505 10502 10498 10495 10491 10486 10481 10477
10692 10695 10697 10699 10701 10702 10703 10704 10705 10706 10706 10707 10706 10706 10705 10705 10704 10703 10701 10700 10698 10696 10694 10692 10689 10686 10684 10680 10677 10674 10671 10668 10665 10662 10659 10656 10653 10650 10647 10645 10642 10640 10637 10634 10630 10627 10624 10620 10617 10613 10609 10606 10602 10598 10595 10591 10588 10584 10581 10577 10574 10570 10566 10564 10560 10555 10549 10544 10540 10538 10539 10533 10521 10518 10517 10513 10510 10506 10502 10499 10494 10490 10486 10482 10479 10474 10468 10464
10691 10693 10695 10697 10699 10700 10701 10702 10703 10704 10704 10704 10703 10703 10703 10702 10701 10699 10698 10696 10694 10692 10690 10687 10685 10682 10679 10676 10673 10670 10667 10664 10661 10658 10655 10652 10650 10647 10644 10641 10639 10636 10633 10630 10626 10622 10619 10615 10612 10608 10604 10600 10597 10593 10589 10585 10582 10578 10574 10570 10567 10564 10559 10555 10551 10547 10542 10537 10531 10526 10527 10525 10515 10507 10505 10501 10499 10495 10491 10487 10483 10478 10473 10469 10465 10462 10457 10452
10689 10691 10693 10695 10697 10698 10699 10700 10701 10701 10701 10701 10701 10700 10699 10698 10697 10696 10694 10692 10690 10688 10686 10683 10681 10678 10675 10672 10669 10666 10663 10660 10657 10654 10652 10649 10647 10644 10641 10638 10634 10631 10628 10625 10622 10618 10614 10610 10607 10603 10599 10595 10591 10588 10584 10579 10575 10571 10567 10562 10558 10556 10552 10548 10542 10538 10534 10528 10524 10518 10514 10513 10507 10500 10496 10491 10486 10483 10479 10474 10469 10464 10459 10455 10451 10447 10444 10439
10687 10690 10692 10693 10695 10696 10697 10698 10699 10699 10698 10698 10698 10697 10696 10695 10694 10692 10691 10689 10687 10685 10682 10679 10677 10674 10671 10668 10665 10662 10659 10657 10654 10652 10649 10646 10643 10640 10637 10634 10630 10627 10623 10620 10616 10613 10609 10605 10602 10598 10594 10590 10586 10582 10578 10573 10568 10564 10560 10555 10550 10545 10541 10538 10533 10528 10523 10517 10512 10508 10504 10500 10495 10488 10484 10478 10473 10469 10465 10460 10454 10449 10444 10439 10435 10431 10427 10423
10686 10688 10690 10692 10693 10694 10695 10696 10696 10696 10696 10695 10694 10694 10693 10692 10690 10689 10687 10685 10683 10681 10678 10676 10673 10670 10667 10664 10662 10659 10656 10654 10651 10648 10645 10642 10639 10636 10633 10630 10626 10622 10619 10615 10611 10607 10604 10600 10597 10593 10588 10584 10580 10576 10572 10567 10561 10556 10552 10547 10543 10537 10532 10527 10522 10517 10513 10507 10500 10493 10489 10485 10480 10475 10469 10463 10459 10454 10449 10444 10438 10433 10428 10422 10417 10413 10409 10405
10685 10687 10689 10690 10691 10692 10693 10693 10693 10693 10693 10692 10692 10691 10690 10689 10687 10686 10684 10682 10680 10677 10675 10672 10670 10667 10664 10662 10659 10657 10654 10651 10648 10645 10642 10639 10636 10632 10629 10626 10622 10619 10615 10611 10607 10603 10600 10596 10592 10588 10583 10578 10574 10569 10565 10560 10554 10549 10543 10538 10533 10528 10524 10519 10513 10507 10502 10497 10491 10484 10476 10470 10463 10460 10456 10448 10443 10439 10434 10428 10423 10418 10412 10406 10401 10396 10391 10388
10684 10686 10687 10688 10689 10690 10690 10691 10691 10690 10690 10689 10689 10688 10687 10686 10684 10683 10681 10679 10676 10674 10672 10669 10667 10664 10662 10659 10657 10654 10651 10648 10645 10642 10638 10635 10632 10628 10625 10622 10619 10615 10611 10607 10603 10599 10595 10591 10587 10582 10577 10572 10567 10562 10557 10553 10548 10542 10536 10530 10524 10518 10512 10508 10503 10498 10492 10486 10481 10476 10470 10462 10453 10448 10443 10435 10429 10425 10419 10414 10409 10403 10397 10391 10386 10380 10375 10371
10683 10684 10685 10686 10687 10688 10688 10688 10688 10688 10688 10687 10687 10686 10685 10683 10682 10680 10678 10675 10673 10671 10669 10666 10664 10662 10659 10656 10654 10651 10648 10645 10642 10639 10635 10632 10629 10625 10622 10619 10615 10612 10608 10603 10599 10594 10590 10586 10581 10576 10571 10566 10561 10555 10550 10545 10540 10535 10529 10523 10518 10512 10503 10497 10492 10487 10484 10478 10471 10466 10461 10454 10447 10439 10433 10425 10418 10413 10407 10401 10395 10389 10383 10377 10371 10365 10360 10355
10682 10683 10684 10685 10685 10686 10686 10686 10686 10686 10686 10685 10684 10683 10682 10681 10679 10677 10675 10673 10670 10668 10666 10664 10662 10659 10656 10653 10651 10648 10645 10642 10639 10636 10633 10630 10626 10623 10619 10615 10611 10607 10603 10598 10593 10589 10584 10579 10575 10570 10565 10560 10555 10549 10544 10538 10532 10526 10521 10515 10509 10505 10497 10489 10483 10478 10473 10470 10463 10457 10452 10444 10436 10428 10422 10414 10408 10403 10396 10389 10384 10377 10371 10365 10358 10352 10345 10339
10681 10682 10683 10683 10684 10684 10684 10685 10685 10684 10684 10683 10682 10681 10680 10678 10676 10675 10673 10670 10668 10666 10664 10661 10659 10656 10653 10650 10648 10645 10642 10640 10637 10634 10631 10627 10623 10619 10615 10610 10606 10602 10597 10592 10587 10583 10578 10573 10568 10564 10559 10554 10548 10543 10537 10532 10525 10519 10514 10508 10500 10496 10491 10481 10475 10470 10465 10460 10454 10449 10445 10437 10429 10420 10411 10405 10399 10393 10385 10379 10373 10366 10360 10353 10346 10339 10332 10325
10680 10681 10681 10682 10683 10683 10683 10683 10683 10682 10682 10681 10680 10679 10677 10676 10674 10673 10671 10668 10666 10664 10662 10659 10656 10653 10650 10648 10646 10643 10641 10638 10635 10631 10628 10623 10619 10614 10610 10605 10600 10596 10592 10588 10583 10578 10573 10568 10563 10558 10553 10547 10542 10536 10531 10526 10519 10512 10507 10502 10494 10488 10485 10477 10468 10461 10457 10453 10448 10442 10437 10429 10422 10413 10404 10397 10390 10382 10374 10367 10361 10353 10346 10339 10331 10323 10317 10311
10679 10680 10681 10681 10682 10682 10682 10681 10681 10681 10680 10679 10678 10677 10676 10674 10673 10671 10669 10666 10664 10661 10659 10656 10654 10651 10649 10647 10644 10642 10639 10636 10632 10627 10623 10618 10614 10609 10605 10600 10596 10592 10587 10583 10579 10574 10568 10563 10558 10553 10547 10542 10537 10530 10525 10520 10514 10508 10501 10496 10490 10481 10477 10473 10466 10457 10448 10442 10438 10434 10428 10420 10411 10404 10396 10388 10380 10372 10363 10355 10348 10341 10333 10325 10316 10308 10302 10297
10678 10679 10680 10680 10680 10680 10680 10680 10680 10679 10679 10678 10677 10676 10674 10672 10670 10668 10666 10663 10661 10659 10657 10654 10652 10650 10648 10646 10643 10639 10636 10632 10628 10623 10619 10614 10610 10606 10601 10597 10593 10588 10584 10579 10574 10569 10563 10558 10553 10548 10542 10537 10531 10525 10519 10513 10508 10503 10496 10490 10485 10477 10469 10463 10459 10452 10442 10434 10428 10423 10419 10412 10400 10392 10387 10379 10368 10360 10352 10344 10338 10332 10323 10314 10305 10297 10289 10283
10678 10678 10679 10679 10680 10680 10680 10679 10679 10678 10678 10677 10675 10674 10672 10670 10668 10666 10663 10661 10659 10657 10655 10653 10651 10649 10646 10643 10640 10636 10632 10628 10624 10619 10615 10611 10607 10603 10598 10594 10589 10584 10579 10574 10569 10564 10558 10553 10548 10543 10538 10532 10526 10520 10514 10508 10502 10497 10490 10483 10476 10470 10462 10454 10448 10442 10435 10427 10420 10413 10407 10403 10393 10379 10374 10370 10359 10351 10344 10335 10330 10322 10313 10304 10295 10286 10277 10268
10678 10678 10679 10679 10679 10679 10679 10679 10678 10677 10676 10675 10674 10672 10670 10668 10666 10664 10662 10660 10658 10655 10654 10652 10649 10647 10643 10640 10636 10632 10628 10625 10621 10616 10612 10608 10603 10599 10595 10590 10585 10581 10575 10570 10565 10560 10554 10549 10544 10539 10533 10527 10521 10515 10509 10503 10497 10490 10483 10476 10468 10461 10454 10447 10439 10432 10426 10417 10410 10404 10395 10393 10387 10368 10362 10361 10351 10344 10338 10327 10320 10311 10301 10293 10284 10276 10266 10256
10678 10679 10679 10679 10679 10679 10678 10678 10677 10676 10675 10673 10672 10670 10668 10666 10665 10663 10661 10659 10656 10654 10652 10650 10647 10643 10640 10637 10633 10629 10626 10622 10617 10613 10608 10604 10600 10595 10591 10586 10582 10577 10572 10567 10561 10555 10550 10545 10540 10534 10528 10522 10516 10510 10503 10497 10490 10483 10476 10469 10462 10455 10447 10440 10433 10424 10417 10408 10400 10394 10384 10383 10380 10360 10350 10351 10341 10334 10328 10317 10308 10298 10289 10282 10274 10265 10254 10244
10679 10679 10679 10679 10678 10678 10677 10677 10676 10675 10673 10672 10670 10668 10667 10665 10663 10661 10659 10657 10655 10653 10650 10646 10643 10640 10637 10633 10630 10626 10622 10618 10614 10610 10606 10602 10598 10593 10588 10583 10578 10573 10568 10563 10558 10552 10547 10541 10535 10528 10522 10516 10509 10502 10496 10490 10484 10478 10472 10465 10457 10450 10442 10434 10428 10419 10411 10403 10392 10384 10373 10368 10368 10354 10341 10336 10328 10320 10314 10304 10294 10284 10276 10269 10260 10249 10238 10229
10679 10679 10679 10678 10678 10677 10676 10675 10674 10673 10672 10670 10669 10667 10666 10664 10662 10660 10658 10656 10653 10650 10647 10644 10641 10638 10634 10630 10627 10623 10620 10616 10612 10608 10603 10599 10595 10590 10585 10580 10574 10569 10564 10559 10553 10547 10541 10534 10528 10522 10516 10510 10504 10498 10493 10488 10482 10475 10469 10462 10453 10445 10438 10430 10423 10416 10408 10398 10386 10377 10365 10354 10353 10349 10337 10323 10312 10305 10297 10285 10275 10266 10259 10251 10242 10232 10222 10214
10679 10679 10678 10678 10677 10677 10675 10674 10673 10672 10670 10669 10668 10666 10665 10663 10661 10658 10656 10653 10650 10648 10645 10642 10639 10635 10632 10629 10625 10622 10618 10614 10610 10605 10601 10596 10592 10587 10583 10577 10572 10566 10560 10554 10547 10541 10536 10531 10524 10519 10513 10507 10502 10496 10490 10485 10479 10472 10466 10461 10454 10444 10436 10428 10419 10411 10403 10394 10382 10371 10360 10345 10336 10336 10331 10317 10304 10295 10284 10273 10262 10255 10247 10236 10227 10219 10210 10203
10679 10678 10678 10677 10677 10676 10675 10673 10672 10671 10670 10668 10667 10665 10663 10661 10658 10656 10653 10651 10648 10646 10643 10640 10637 10634 10631 10628 10624 10620 10616 10612 10608 10604 10600 10595 10590 10586 10580 10575 10569 10563 10557 10551 10546 10540 10535 10529 10522 10516 10510 10504 10498 10491 10485 10479 10473 10467 10461 10456 10451 10444 10435 10425 10416 10408 10398 10387 10377 10367 10358 10345 10331 10326 10324 10314 10302 10292 10279 10267 10256 10247 10238 10227 10217 10209 10201 10192
10678 10678 10677 10677 10676 10675 10674 10673 10671 10670 10669 10668 10666 10663 10661 10658 10656 10654 10652 10650 10647 10644 10641 10639 10636 10633 10629 10625 10622 10618 10614 10610 10606 10601 10597 10592 10587 10582 10577 10572 10566 10560 10555 10550 10545 10539 10532 10525 10519 10512 10506 10500 10494 10487 10480 10474 10466 10459 10453 10446 10442 10437 10431 10423 10415 10408 10399 10384 10369 10357 10349 10340 10329 10322 10315 10305 10295 10284 10272 10259 10248 10238 10228 10217 10206 10195 10186 10175
10678 10677 10677 10676 10675 10674 10673 10672 10671 10669 10667 10665 10663 10661 10659 10657 10655 10653 10651 10648 10646 10643 10641 10638 10635 10631 10627 10624 10620 10616 10612 10607 10603 10598 10594 10589 10584 10579 10574 10568 10563 10557 10552 10545 10540 10534 10528 10522 10516 10510 10502 10495 10488 10482 10475 10469 10461 10452 10445 10438 10430 10423 10418 10412 10404 10398 10393 10382 10366 10349 10337 10326 10317 10312 10304 10293 10282 10271 10260 10249 10237 10226 10213 10202 10192 10181 10171 10160
10678 10677 10676 10676 10675 10673 10672 10671 10669 10667 10665 10663 10661 10659 10658 10655 10654 10652 10650 10648 10645 10642 10639 10636 10633 10630 10626 10623 10618 10614 10610 10606 10601 10597 10592 10587 10582 10577 10571 10566 10560 10554 10548 10542 10536 10530 10524 10519 10513 10506 10499 10491 10483 10475 10467 10460 10453 10445 10436 10427 10418 10409 10402 10395 10387 10379 10375 10371 10360 10345 10329 10310 10296 10293 10288 10279 10271 10260 10249 10238 10225 10213 10201 10189 10181 10171 10161 10150
10678 10677 10676 10675 10673 10672 10670 10669 10667 10665 10663 10662 10660 10658 10657 10655 10653 10652 10649 10647 10644 10641 10638 10635 10632 10629 10625 10621 10617 10613 10609 10604 10600 10595 10590 10585 10580 10575 10569 10563 10558 10552 10546 10540 10534 10526 10519 10513 10507 10500 10494 10486 10478 10470 10462 10454 10446 10437 10428 10420 10412 10402 10393 10385 10378 10368 10360 10355 10347 10333 10321 10303 10285 10280 10274 10264 10258 10249 10237 10225 10212 10201 10191 10179 10169 10160 10150 10140
10677 10676 10675 10673 10672 10670 10669 10667 10665 10664 10662 10661 10659 10658 10656 10655 10653 10651 10649 10646 10644 10641 10638 10634 10631 10628 10624 10620 10616 10612 10608 10603 10598 10593 10588 10583 10578 10573 10567 10562 10556 10550 10544 10538 10532 10525 10517 10509 10503 10497 10490 10482 10475 10467 10458 10449 10440 10432 10423 10415 10407 10396 10384 10377 10373 10365 10354 10347 10338 10322 10311 10296 10278 10272 10267 10252 10241 10234 10226 10216 10204 10193 10182 10170 10159 10149 10139 10129
10676 10675 10673 10672 10670 10669 10667 10666 10664 10663 10662 10660 10659 10658 10657 10655 10653 10651 10649 10646 10643 10640 10637 10634 10631 10627 10623 10619 10615 10610 10606 10601 10597 10592 10587 10582 10577 10571 10566 10560 10554 10548 10542 10536 10530 10524 10517 10508 10500 10495 10488 10480 10473 10464 10456 10447 10438 10429 10418 10407 10399 10390 10379 10367 10360 10357 10347 10340 10333 10318 10300 10280 10261 10255 10252 10240 10228 10220 10215 10208 10196 10184 10174 10163 10152 10140 10129 10118
10675 10674 10672 10670 10669 10668 10666 10665 10663 10662 10662 10661 10660 10658 10657 10655 10653 10651 10649 10646 10643 10640 10637 10633 10629 10626 10622 10618 10614 10609 10605 10600 10596 10591 10586 10581 10575 10570 10564 10559 10553 10546 10540 10534 10527 10521 10515 10507 10498 10491 10484 10477 10468 10460 10452 10445 10435 10425 10413 10401 10391 10383 10375 10362 10349 10341 10332 10324 10320 10315 10298 10272 10250 10241 10233 10224 10216 10206 10200 10196 10185 10174 10163 10153 10143 10132 10122 10112
10674 10672 10671 10669 10668 10667 10665 10664 10663 10663 10662 10661 10660 10659 10657 10655 10653 10651 10648 10646 10643 10639 10635 10632 10628 10624 10621 10617 10613 10608 10604 10599 10595 10590 10585 10580 10574 10569 10563 10557 10551 10545 10538 10531 10525 10518 10512 10506 10496 10486 10478 10471 10464 10455 10446 10437 10428 10419 10408 10398 10386 10375 10366 10355 10343 10331 10320 10309 10302 10301 10294 10267 10242 10235 10227 10214 10204 10191 10182 10179 10172 10161 10149 10138 10128 10119 10110 10101
10673 10671 10670 10669 10667 10666 10665 10665 10664 10664 10663 10662 10660 10659 10657 10655 10653 10651 10648 10645 10642 10638 10634 10631 10628 10624 10620 10616 10612 10608 10603 10599 10594 10589 10584 10578 10573 10567 10561 10555 10549 10543 10536 10529 10522 10515 10508 10501 10494 10485 10475 10466 10457 10449 10440 10430 10421 10411 10401 10391 10381 10370 10360 10349 10339 10326 10312 10299 10286 10282 10283 10262 10234 10226 10221 10207 10195 10181 10169 10165 10160 10150 10139 10127 10117 10106 10096 10088
10672 10670 10669 10668 10667 10667 10666 10666 10665 10664 10663 10662 10661 10659 10657 10655 10653 10650 10648 10644 10641 10638 10634 10631 10628 10624 10621 10617 10612 10608 10603 10598 10593 10588 10583 10577 10572 10566 10560 10554 10548 10541 10535 10527 10520 10513 10506 10498 10491 10483 10474 10465 10455 10445 10436 10426 10417 10407 10396 10385 10374 10363 10354 10342 10332 10322 10307 10292 10278 10269 10270 10259 10231 10213 10204 10192 10183 10172 10161 10153 10147 10141 10131 10120 10109 10099 10088 10079
10671 10670 10669 10669 10668 10668 10667 10667 10666 10665 10664 10663 10661 10659 10657 10655 10653 10650 10647 10644 10641 10638 10635 10632 10629 10625 10621 10617 10613 10608 10603 10598 10593 10587 10582 10576 10570 10565 10558 10552 10546 10539 10532 10525 10518 10511 10503 10495 10488 10479 10470 10462 10453 10442 10432 10422 10414 10406 10394 10382 10369 10356 10344 10330 10320 10315 10304 10288 10275 10266 10263 10254 10232 10209 10194 10183 10175 10166 10153 10141 10133 10128 10121 10111 10101 10092 10083 10075
10671 10670 10670 10670 10669 10669 10668 10667 10666 10666 10665 10663 10661 10659 10657 10655 10652 10650 10647 10644 10642 10639 10636 10633 10629 10625 10621 10617 10613 10608 10603 10598 10592 10587 10581 10575 10569 10563 10557 10550 10544 10537 10530 10522 10514 10506 10499 10491 10485 10478 10469 10459 10449 10439 10431 10420 10410 10402 10392 10378 10363 10347 10335 10322 10310 10304 10296 10281 10265 10259 10258 10248 10227 10208 10192 10178 10168 10158 10146 10134 10123 10116 10111 10103 10094 10085 10075 10066
10672 10671 10671 10671 10670 10670 10669 10668 10667 10666 10665 10663 10662 10660 10658 10655 10652 10650 10647 10645 10643 10639 10636 10633 10629 10626 10622 10617 10613 10608 10603 10598 10592 10587 10581 10575 10569 10562 10556 10549 10542 10535 10528 10520 10513 10504 10495 10486 10478 10472 10466 10459 10450 10439 10429 10417 10403 10391 10381 10368 10354 10339 10327 10317 10305 10297 10291 10279 10258 10244 10243 10241 10226 10209 10193 10174 10159 10150 10139 10128 10116 10105 10097 10092 10086 10078 10069 10058
10673 10672 10672 10672 10671 10670 10670 10669 10668 10667 10665 10664 10662 10660 10658 10655 10653 10651 10648 10646 10643 10640 10637 10634 10630 10626 10621 10617 10612 10607 10603 10598 10592 10586 10580 10574 10568 10561 10554 10548 10540 10533 10525 10518 10510 10501 10492 10482 10471 10462 10455 10446 10438 10427 10415 10405 10394 10380 10369 10359 10348 10335 10323 10311 10298 10289 10284 10277 10258 10233 10225 10229 10224 10210 10195 10176 10158 10146 10135 10125 10113 10099 10089 10082 10074 10068 10061 10053
10674 10674 10673 10673 10672 10671 10671 10670 10669 10668 10666 10664 10662 10660 10658 10656 10654 10652 10649 10647 10644 10641 10638 10634 10630 10626 10621 10616 10612 10606 10602 10597 10591 10586 10580 10573 10567 10560 10553 10546 10539 10532 10524 10515 10508 10499 10490 10481 10469 10458 10449 10438 10429 10419 10408 10396 10386 10374 10362 10354 10345 10333 10318 10304 10292 10283 10274 10267 10257 10236 10217 10213 10210 10200 10186 10171 10154 10140 10126 10116 10107 10096 10085 10075 10065 10057 10051 10043
10675 10675 10674 10674 10673 10673 10672 10671 10670 10669 10667 10665 10663 10661 10659 10657 10655 10653 10650 10647 10645 10641 10638 10634 10630 10626 10622 10617 10612 10607 10601 10596 10591 10585 10579 10572 10566 10559 10552 10545 10537 10529 10522 10513 10506 10497 10488 10480 10469 10457 10447 10438 10427 10417 10406 10392 10381 10372 10361 10352 10343 10330 10316 10301 10288 10278 10266 10255 10250 10239 10220 10205 10197 10188 10175 10160 10144 10131 10119 10110 10102 10091 10079 10067 10056 10047 10039 10032
10676 10676 10676 10675 10675 10674 10673 10672 10671 10669 10667 10665 10664 10662 10660 10658 10656 10653 10651 10648 10645 10642 10639 10635 10631 10627 10623 10618 10613 10608 10602 10596 10590 10584 10578 10572 10565 10558 10550 10543 10536 10528 10520 10512 10503 10496 10486 10478 10469 10457 10445 10436 10425 10414 10404 10393 10381 10372 10361 10348 10336 10325 10314 10302 10286 10273 10262 10248 10237 10230 10218 10201 10186 10176 10166 10153 10137 10124 10113 10103 10092 10081 10070 10058 10047 10038 10031 10023
10677 10677 10677 10676 10676 10675 10674 10673 10672 10670 10668 10666 10665 10663 10661 10659 10657 10654 10652 10649 10646 10643 10639 10635 10631 10627 10622 10617 10612 10608 10603 10597 10591 10584 10578 10571 10564 10557 10550 10542 10534 10526 10518 10510 10501 10493 10485 10475 10467 10457 10445 10435 10425 10413 10403 10393 10381 10368 10356 10343 10332 10321 10309 10295 10280 10268 10258 10244 10227 10214 10205 10192 10177 10164 10155 10144 10131 10118 10106 10095 10083 10072 10064 10056 10045 10036 10029 10022
10679 10678 10678 10677 10677 10676 10675 10674 10672 10670 10669 10667 10666 10664 10662 10660 10658 10655 10652 10649 10646 10643 10639 10635 10631 10626 10621 10616 10611 10606 10601 10596 10590 10583 10576 10569 10562 10555 10548 10540 10533 10524 10515 10508 10499 10491 10483 10473 10464 10455 10443 10432 10423 10412 10400 10388 10374 10361 10349 10339 10329 10318 10303 10287 10271 10260 10253 10243 10227 10208 10194 10184 10172 10158 10146 10134 10122 10109 10098 10090 10081 10071 10061 10054 10046 10037 10027 10018
10680 10680 10679 10678 10678 10677 10676 10675 10673 10671 10670 10669 10667 10665 10663 10661 10659 10656 10653 10650 10647 10644 10640 10635 10631 10626 10621 10616 10610 10605 10600 10593 10587 10581 10574 10567 10560 10553 10545 10538 10530 10522 10513 10505 10496 10487 10479 10470 10461 10452 10441 10429 10418 10407 10396 10385 10374 10362 10350 10338 10325 10312 10299 10284 10266 10251 10238 10227 10216 10203 10189 10177 10165 10153 10142 10131 10118 10104 10093 10085 10080 10071 10060 10047 10034 10025 10017 10008
10681 10681 10680 10679 10679 10678 10677 10675 10674 10672 10671 10670 10668 10666 10664 10662 10659 10656 10654 10651 10647 10644 10640 10635 10631 10626 10621 10616 10610 10605 10599 10592 10586 10580 10572 10565 10558 10550 10543 10535 10527 10520 10511 10503 10494 10484 10475 10465 10456 10446 10436 10425 10414 10402 10390 10379 10369 10358 10344 10330 10316 10305 10295 10281 10264 10250 10235 10217 10203 10192 10180 10168 10156 10147 10140 10130 10117 10102 10088 10077 10068 10059 10050 10037 10023 10013 10006 10000